Albemarle, NC

9:12 AM EDT on October 20, 2017 (GMT -0400)
Stanly County

Weather History for KVUJ - March, 2014

Change the Weather History Date:

Tuesday, March 11, 2014

  Actual Average (KHBI) Record (KHBI)
Temperature  
Mean Temperature 55 °F -  
Max Temperature 76 °F 64 °F 84 °F (1990)
Min Temperature 34 °F 38 °F 22 °F (1934)
Degree Days  
Heating Degree Days 10    
Growing Degree Days 5 (Base 50)    
Moisture  
Dew Point 39 °F    
Average Humidity 62    
Maximum Humidity 100    
Minimum Humidity 24    
Precipitation  
Precipitation 0.00 in - - ()
Sea Level Pressure  
Sea Level Pressure 29.80 in    
Wind  
Wind Speed 1 mph (SW)    
Max Wind Speed 13 mph    
Max Gust Speed 17 mph    
Visibility 10 miles    
Events      
Averages and records for this station are not official NWS values.
T = Trace of Precipitation, MM = Missing Value Source: NWS Daily Summary

Daily Weather History Graph

Daily Weather History Graph

Search for Another Location

Airport or City:

Trip Planner

Search our weather history database for the weather conditions in past years. The results will help you decide how hot, cold, wet, or windy it might be!

Date:

Astronomy

Mar. 11, 2014 Rise Set
Actual Time 7:36 AM EDT 7:24 PM EDT
Civil Twilight 7:11 AM EDT 7:50 PM EDT
Nautical Twilight 6:42 AM EDT 8:19 PM EDT
Astronomical Twilight 6:12 AM EDT 8:49 PM EDT
Moon 3:07 PM EDT (3/11) 4:21 AM EDT (3/11)
Length of Visible Light 12h 38m
Length of Day
11h 47m
Waxing Gibbous, 78% of the Moon is Illuminated
Mar 11
Waxing Gibbous
Mar 16
Full
Mar 23
Last Quarter
Mar 30
New
Apr 7
First Quarter

Hourly Weather History & Observations

Time (EDT) Temp. Dew Point Humidity Pressure Visibility Wind Dir Wind Speed Gust Speed Precip Events Conditions
12:15 AM 46.9 °F 39.2 °F 74% 29.87 in 10.0 mi Calm Calm - N/A   Clear
12:35 AM 45.0 °F 38.8 °F 79% 29.87 in 10.0 mi Calm Calm - N/A   Clear
12:55 AM 44.8 °F 40.1 °F 84% 29.87 in 10.0 mi Calm Calm - N/A   Clear
1:15 AM 46.0 °F 39.7 °F 79% 29.87 in 10.0 mi Calm Calm - N/A   Clear
1:35 AM 44.1 °F 39.2 °F 83% 29.87 in 10.0 mi Calm Calm - N/A   Clear
1:55 AM 44.8 °F 39.6 °F 82% 29.86 in 10.0 mi Calm Calm - N/A   Clear
2:15 AM 42.1 °F 38.8 °F 88% 29.86 in 10.0 mi Calm Calm - N/A   Clear
2:35 AM 41.7 °F 38.5 °F 88% 29.86 in 10.0 mi Calm Calm - N/A   Clear
2:55 AM 41.4 °F 38.3 °F 89% 29.85 in 10.0 mi Calm Calm - N/A   Clear
3:15 AM 40.3 °F 38.3 °F 93% 29.85 in 10.0 mi Calm Calm - N/A   Clear
3:35 AM 40.5 °F 38.8 °F 94% 29.84 in 10.0 mi Calm Calm - N/A   Clear
3:55 AM 40.1 °F 38.3 °F 93% 29.84 in 10.0 mi Calm Calm - N/A   Clear
4:15 AM 38.5 °F 37.0 °F 95% 29.84 in 10.0 mi Calm Calm - N/A   Clear
4:35 AM 39.7 °F 38.1 °F 94% 29.84 in 10.0 mi Calm Calm - N/A   Clear
4:55 AM 38.5 °F 37.0 °F 95% 29.83 in 10.0 mi Calm Calm - N/A   Clear
5:15 AM 37.2 °F 37.2 °F 100% 29.82 in 10.0 mi Calm Calm - N/A   Clear
5:35 AM 37.8 °F 36.9 °F 97% 29.82 in 10.0 mi Calm Calm - N/A   Clear
5:55 AM 36.1 °F 35.6 °F 98% 29.82 in 10.0 mi Calm Calm - N/A   Clear
6:15 AM 37.0 °F 37.0 °F 100% 29.82 in 10.0 mi Calm Calm - N/A   Clear
6:35 AM 37.2 °F 36.7 °F 98% 29.84 in 10.0 mi Calm Calm - N/A   Clear
6:55 AM 34.2 °F 33.4 °F 97% 29.82 in 10.0 mi Calm Calm - N/A   Clear
7:15 AM 35.4 °F 35.1 °F 99% 29.84 in 10.0 mi Calm Calm - N/A   Clear
7:35 AM 34.2 °F 34.2 °F 100% 29.83 in 10.0 mi Calm Calm - N/A   Clear
7:55 AM 34.2 °F 34.2 °F 100% 29.84 in 10.0 mi Calm Calm - N/A   Clear
8:15 AM 36.3 °F 35.4 °F 97% 29.84 in 10.0 mi Calm Calm - N/A   Clear
8:35 AM 39.2 °F 38.5 °F 97% 29.84 in 10.0 mi Calm Calm - N/A   Clear
8:55 AM 43.2 °F 42.3 °F 97% 29.85 in 10.0 mi Calm Calm - N/A   Clear
9:15 AM 47.1 °F 44.2 °F 90% 29.86 in 10.0 mi Calm Calm - N/A   Clear
9:35 AM 52.3 °F 44.1 °F 73% 29.86 in 10.0 mi SW 4.6 mph - N/A   Clear
9:55 AM 54.7 °F 43.3 °F 66% 29.87 in 10.0 mi SW 4.6 mph - N/A   Clear
10:15 AM 55.9 °F 42.4 °F 61% 29.87 in 10.0 mi Calm Calm - N/A   Clear
10:35 AM 59.0 °F 42.8 °F 55% 29.87 in 10.0 mi Calm Calm - N/A   Clear
10:55 AM 61.9 °F 43.0 °F 50% 29.86 in 10.0 mi East 3.5 mph - N/A   Clear
11:15 AM 64.2 °F 43.2 °F 46% 29.86 in 10.0 mi Calm Calm - N/A   Clear
11:35 AM 66.9 °F 42.6 °F 41% 29.85 in 10.0 mi Calm Calm - N/A   Clear
11:55 AM 68.7 °F 42.8 °F 39% 29.85 in 10.0 mi SSW 4.6 mph - N/A   Clear
12:15 PM 69.4 °F 39.9 °F 34% 29.84 in 10.0 mi Calm Calm - N/A   Clear
12:35 PM 70.2 °F 37.0 °F 30% 29.84 in 10.0 mi Calm Calm - N/A   Clear
12:55 PM 71.4 °F 37.9 °F 30% 29.82 in 10.0 mi SW 3.5 mph - N/A   Clear
1:15 PM 73.0 °F 38.3 °F 28% 29.81 in 10.0 mi South 5.8 mph - N/A   Clear
1:35 PM 73.0 °F 35.4 °F 25% 29.80 in 10.0 mi South 3.5 mph - N/A   Clear
1:55 PM 73.6 °F 34.9 °F 24% 29.79 in 10.0 mi WSW 5.8 mph - N/A   Clear
2:15 PM 73.8 °F 36.9 °F 26% 29.78 in 10.0 mi South 4.6 mph - N/A   Clear
2:35 PM 74.5 °F 35.4 °F 24% 29.77 in 10.0 mi SSW 5.8 mph - N/A   Clear
2:55 PM 75.0 °F 36.3 °F 25% 29.75 in 10.0 mi SW 9.2 mph - N/A   Clear
3:15 PM 75.0 °F 37.4 °F 26% 29.75 in 10.0 mi SW 6.9 mph - N/A   Clear
3:35 PM 75.7 °F 39.4 °F 27% 29.74 in 10.0 mi SW 6.9 mph - N/A   Clear
3:55 PM 75.7 °F 37.9 °F 26% 29.75 in 10.0 mi WSW 12.7 mph 16.1 mph N/A   Clear
4:15 PM 76.1 °F 37.9 °F 25% 29.74 in 10.0 mi SW 6.9 mph 16.1 mph N/A   Clear
4:35 PM 76.1 °F 39.4 °F 27% 29.74 in 10.0 mi SW 10.4 mph - N/A   Clear
4:55 PM 76.1 °F 37.6 °F 25% 29.74 in 10.0 mi SW 5.8 mph - N/A   Clear
5:15 PM 75.9 °F 37.9 °F 25% 29.74 in 10.0 mi SW 6.9 mph 17.3 mph N/A   Clear
5:35 PM 76.1 °F 39.4 °F 27% 29.73 in 10.0 mi SW 3.5 mph - N/A   Clear
5:55 PM 75.2 °F 37.8 °F 26% 29.73 in 10.0 mi SW 4.6 mph - N/A   Clear
6:15 PM 73.6 °F 38.1 °F 28% 29.72 in 10.0 mi SSW 5.8 mph - N/A   Clear
6:35 PM 72.7 °F 37.4 °F 28% 29.73 in 10.0 mi SSW 8.1 mph - N/A   Clear
6:55 PM 69.1 °F 38.5 °F 33% 29.73 in 10.0 mi SSW 5.8 mph - N/A   Clear
7:15 PM 69.4 °F 38.1 °F 32% 29.73 in 10.0 mi Calm Calm - N/A   Clear
7:35 PM 66.7 °F 39.2 °F 36% 29.74 in 10.0 mi Calm Calm - N/A   Clear
7:55 PM 60.6 °F 42.1 °F 50% 29.74 in 10.0 mi Calm Calm - N/A   Clear
8:15 PM 58.3 °F 41.4 °F 53% 29.75 in 10.0 mi Calm Calm - N/A   Clear
8:35 PM 57.2 °F 41.4 °F 55% 29.75 in 10.0 mi Calm Calm - N/A   Clear
8:55 PM 57.4 °F 40.6 °F 54% 29.75 in 10.0 mi North - - N/A   Clear
9:15 PM 54.5 °F 41.9 °F 62% 29.75 in 10.0 mi North - - N/A   Clear
9:35 PM 52.9 °F 42.8 °F 69% 29.74 in 10.0 mi North - - N/A   Clear
9:55 PM 56.1 °F 41.5 °F 58% 29.74 in 10.0 mi North - - N/A   Clear
10:15 PM 52.9 °F 42.8 °F 69% 29.75 in 10.0 mi Calm Calm - N/A   Clear
10:35 PM 52.7 °F 42.8 °F 69% 29.75 in 10.0 mi Calm Calm - N/A   Clear
10:55 PM 52.3 °F 43.0 °F 70% 29.75 in 10.0 mi Calm Calm - N/A   Clear
11:15 PM 52.0 °F 43.7 °F 73% 29.74 in 10.0 mi Calm Calm - N/A   Clear
11:35 PM 52.2 °F 44.6 °F 75% 29.74 in 10.0 mi Calm Calm - N/A   Clear
11:55 PM 52.2 °F 44.1 °F 74% 29.74 in 10.0 mi Calm Calm - N/A   Clear